User: anonymous   Login
Location: Unspecified
(0.0000°N, 0.0000°E)
Time: 19:38:06
(UTC+00:00)
Language:

Eole - Orbit

View from above orbital plane
View from above orbital plane
View from above satellite
View from above satellite

Ground track
Ground track

The orbit data is extracted from the following two-line orbital elements,

1  5435U 71071A   19340.87704661 -.00000101 +00000-0 +21688-4 0  9991
2  5435 050.1392 186.8716 0110449 142.4148 218.4565 14.55219465528388
Epoch (UTC): 06 December 2019 21:02:56
Eccentricity: 0.0110449
inclination: 50.1392°
perigee height: 630 km
apogee height: 787 km
right ascension of ascending node: 186.8716°
argument of perigee: 142.4148°
revolutions per day: 14.55219465
mean anomaly at epoch: 218.4565°
orbit number at epoch: 52838

The dashed part of the orbit path shows where the satellite is in the earth's shadow,  

DLR